Location: Shenandoah County Park
(38.9356°N, 78.4524°W)
Time: 11:44:06
(UTC-05:00)

Envisat - Pass Details

Date: 07 October 2022
Orbit: 763 x 765 km, 98.2° (Epoch: 29 November)

Event Time Altitude Azimuth Distance (km) Brightness Sun altitude
Rises 04:12:33 0° 34° (NE) 3,237 7.0 -35.6°
Reaches altitude 10° 04:16:04 10° 60° (ENE) 2,305 6.3 -34.9°
Maximum altitude 04:18:38 14° 91° (E) 2,041 5.8 -34.5°
Drops below altitude 10° 04:21:11 10° 121° (ESE) 2,296 5.8 -34.0°
Sets 04:24:40 0° 147° (SSE) 3,215 6.3 -33.4°
